| time (UTC) | temp F | wind direction | speed knots | gust knots | rain 1hr in | rain 24hr in | rain mn in | humidity % | barometer mb |
| 20260505224040 | 52 | 43 | 5.2 | 10.4 | 0.00 | 0.00 | 0.00 | 77 | 1012.5 |
| 20260505223541 | 52 | 5 | 3.5 | 10.4 | 0.00 | 0.00 | 0.00 | 76 | 1012.4 |
| 20260505223051 | 52 | 334 | 4.3 | 12.2 | 0.00 | 0.00 | 0.00 | 76 | 1012.4 |
| 20260505222539 | 52 | 281 | 5.2 | 13.0 | 0.00 | 0.00 | 0.00 | 76 | 1012.4 |
| 20260505222041 | 53 | 38 | 4.3 | 13.0 | 0.00 | 0.00 | 0.00 | 75 | 1012.3 |
| 20260505221553 | 53 | 327 | 6.1 | 13.0 | 0.00 | 0.00 | 0.00 | 75 | 1012.3 |
| 20260505221043 | 53 | 333 | 4.3 | 13.9 | 0.00 | 0.00 | 0.00 | 74 | 1012.3 |
| 20260505220539 | 53 | 327 | 5.2 | 13.9 | 0.00 | 0.00 | 0.00 | 74 | 1012.3 |
| 20260505220055 | 54 | 355 | 3.5 | 12.2 | 0.00 | 0.00 | 0.00 | 74 | 1012.2 |
| 20260505215541 | 54 | 17 | 4.3 | 12.2 | 0.00 | 0.00 | 0.00 | 73 | 1012.2 |
| 20260505215041 | 54 | 5 | 3.5 | 10.4 | 0.00 | 0.00 | 0.00 | 73 | 1012.2 |
| 20260505214543 | 54 | 28 | 2.6 | 8.7 | 0.00 | 0.00 | 0.00 | 73 | 1012.1 |
| 20260505214041 | 54 | 44 | 3.5 | 9.6 | 0.00 | 0.00 | 0.00 | 73 | 1012.1 |
| 20260505213542 | 54 | 17 | 2.6 | 10.4 | 0.00 | 0.00 | 0.00 | 73 | 1012.0 |
| 20260505213047 | 54 | 23 | 3.5 | 10.4 | 0.00 | 0.00 | 0.00 | 73 | 1012.1 |
| 20260505212541 | 54 | 70 | 4.3 | 10.4 | 0.00 | 0.00 | 0.00 | 73 | 1011.9 |
| 20260505212041 | 54 | 24 | 2.6 | 10.4 | 0.00 | 0.00 | 0.00 | 73 | 1011.9 |
| 20260505211548 | 54 | 18 | 5.2 | 10.4 | 0.00 | 0.00 | 0.00 | 73 | 1011.9 |
| 20260505211040 | 55 | 19 | 3.5 | 11.3 | 0.00 | 0.00 | 0.00 | 73 | 1012.0 |
| 20260505210541 | 55 | 329 | 4.3 | 11.3 | 0.00 | 0.00 | 0.00 | 73 | 1011.8 |
| 20260505210048 | 55 | 10 | 5.2 | 11.3 | 0.00 | 0.00 | 0.00 | 73 | 1011.8 |
| 20260505205543 | 55 | 10 | 2.6 | 11.3 | 0.00 | 0.00 | 0.00 | 73 | 1011.9 |
| 20260505205042 | 55 | 337 | 5.2 | 11.3 | 0.00 | 0.00 | 0.00 | 73 | 1011.9 |
| 20260505204548 | 55 | 346 | 4.3 | 11.3 | 0.00 | 0.00 | 0.00 | 72 | 1011.8 |
| 20260505204041 | 55 | 25 | 3.5 | 11.3 | 0.00 | 0.00 | 0.00 | 72 | 1011.7 |
| 20260505203541 | 55 | 5 | 4.3 | 8.7 | 0.00 | 0.00 | 0.00 | 72 | 1011.7 |
| 20260505203050 | 55 | 336 | 2.6 | 8.7 | 0.00 | 0.00 | 0.00 | 72 | 1011.7 |
| 20260505202541 | 55 | 12 | 2.6 | 8.7 | 0.00 | 0.00 | 0.00 | 72 | 1011.6 |
| 20260505202041 | 55 | 355 | 3.5 | 11.3 | 0.00 | 0.00 | 0.00 | 72 | 1011.6 |
| 20260505201553 | 55 | 42 | 2.6 | 12.2 | 0.00 | 0.00 | 0.00 | 72 | 1011.7 |
| 20260505201040 | 55 | 338 | 3.5 | 12.2 | 0.00 | 0.00 | 0.00 | 72 | 1011.7 |
| 20260505200541 | 55 | 355 | 4.3 | 10.4 | 0.00 | 0.00 | 0.00 | 72 | 1011.6 |
| 20260505200049 | 55 | 26 | 4.3 | 11.3 | 0.00 | 0.00 | 0.00 | 72 | 1011.5 |
| 20260505195540 | 55 | 17 | 4.3 | 12.2 | 0.00 | 0.00 | 0.00 | 72 | 1011.5 |
| 20260505195041 | 56 | 320 | 3.5 | 12.2 | 0.00 | 0.00 | 0.00 | 72 | 1011.5 |
| 20260505194556 | 56 | 45 | 2.6 | 10.4 | 0.00 | 0.00 | 0.00 | 72 | 1011.3 |
| 20260505194043 | 56 | 342 | 5.2 | 10.4 | 0.00 | 0.00 | 0.00 | 72 | 1011.3 |
| 20260505193541 | 56 | 298 | 3.5 | 12.2 | 0.00 | 0.00 | 0.00 | 72 | 1011.3 |
| 20260505193103 | 56 | 348 | 3.5 | 12.2 | 0.00 | 0.00 | 0.00 | 73 | 1011.2 |
| 20260505192541 | 57 | 355 | 2.6 | 10.4 | 0.00 | 0.00 | 0.00 | 73 | 1011.2 |
| 20260505192042 | 57 | 14 | 2.6 | 7.8 | 0.00 | 0.00 | 0.00 | 73 | 1011.1 |
| 20260505191543 | 57 | 346 | 2.6 | 9.6 | 0.00 | 0.00 | 0.00 | 72 | 1011.0 |
| 20260505191041 | 57 | 346 | 3.5 | 9.6 | 0.00 | 0.00 | 0.00 | 72 | 1011.0 |
| 20260505190540 | 57 | 15 | 2.6 | 8.7 | 0.00 | 0.00 | 0.00 | 72 | 1011.0 |
| 20260505190050 | 57 | 5 | 3.5 | 12.2 | 0.00 | 0.00 | 0.00 | 71 | 1010.9 |
| 20260505185542 | 57 | 348 | 4.3 | 12.2 | 0.00 | 0.00 | 0.00 | 71 | 1010.9 |
| 20260505185040 | 57 | 333 | 5.2 | 12.2 | 0.00 | 0.00 | 0.00 | 70 | 1010.9 |
| 20260505184555 | 57 | 5 | 2.6 | 9.6 | 0.00 | 0.00 | 0.00 | 70 | 1010.8 |
| 20260505184043 | 58 | 343 | 1.7 | 4.3 | 0.00 | 0.00 | 0.00 | 70 | 1010.9 |
| 20260505183541 | 58 | 5 | 0.9 | 4.3 | 0.00 | 0.00 | 0.00 | 70 | 1010.8 |
| 20260505183044 | 58 | 343 | 1.7 | 4.3 | 0.00 | 0.00 | 0.00 | 71 | 1010.7 |
| 20260505182540 | 58 | 342 | 0.9 | 5.2 | 0.00 | 0.00 | 0.00 | 71 | 1010.8 |
| 20260505182037 | 58 | 13 | 0.9 | 5.2 | 0.00 | 0.00 | 0.00 | 71 | 1010.7 |
| 20260505181548 | 58 | 285 | 0.0 | 2.6 | 0.00 | 0.00 | 0.00 | 71 | 1010.8 |
| 20260505181041 | 58 | 0 | 0.0 | 4.3 | 0.00 | 0.00 | 0.00 | 70 | 1010.8 |
| 20260505180540 | 58 | 338 | 0.9 | 5.2 | 0.00 | 0.00 | 0.00 | 70 | 1010.8 |
| 20260505180051 | 58 | 20 | 1.7 | 5.2 | 0.00 | 0.00 | 0.00 | 70 | 1010.8 |
| 20260505175541 | 58 | 5 | 0.9 | 4.3 | 0.00 | 0.00 | 0.00 | 70 | 1010.8 |
| 20260505175042 | 58 | 351 | 0.9 | 5.2 | 0.00 | 0.00 | 0.00 | 70 | 1010.8 |
| 20260505174550 | 58 | 319 | 1.7 | 6.1 | 0.00 | 0.00 | 0.00 | 70 | 1010.8 |
| 20260505174043 | 58 | 298 | 1.7 | 6.1 | 0.00 | 0.00 | 0.00 | 70 | 1010.7 |
| 20260505173542 | 58 | 267 | 2.6 | 6.1 | 0.00 | 0.00 | 0.00 | 70 | 1010.8 |
| 20260505173049 | 59 | 355 | 1.7 | 7.8 | 0.00 | 0.00 | 0.00 | 70 | 1010.8 |
| 20260505172541 | 59 | 294 | 1.7 | 7.8 | 0.00 | 0.00 | 0.00 | 69 | 1010.8 |
| 20260505172040 | 59 | 350 | 1.7 | 7.8 | 0.00 | 0.00 | 0.00 | 69 | 1010.9 |
| 20260505171553 | 59 | 289 | 2.6 | 7.8 | 0.00 | 0.00 | 0.00 | 69 | 1010.9 |
| 20260505171041 | 59 | 0 | 1.7 | 8.7 | 0.00 | 0.00 | 0.00 | 69 | 1010.9 |
| 20260505170540 | 59 | 281 | 2.6 | 8.7 | 0.00 | 0.00 | 0.00 | 69 | 1010.8 |
| 20260505170051 | 59 | 300 | 1.7 | 7.0 | 0.00 | 0.00 | 0.00 | 69 | 1010.8 |
| 20260505165540 | 59 | 273 | 1.7 | 7.8 | 0.00 | 0.00 | 0.00 | 70 | 1010.8 |
| 20260505165037 | 59 | 293 | 2.6 | 7.8 | 0.00 | 0.00 | 0.00 | 70 | 1010.9 |
| 20260505164551 | 59 | 288 | 2.6 | 7.8 | 0.00 | 0.00 | 0.00 | 69 | 1010.9 |
| 20260505164041 | 59 | 286 | 1.7 | 7.0 | 0.00 | 0.00 | 0.00 | 70 | 1010.8 |
| 20260505163537 | 59 | 279 | 2.6 | 7.0 | 0.00 | 0.00 | 0.00 | 69 | 1010.8 |
| 20260505163043 | 59 | 290 | 1.7 | 7.8 | 0.00 | 0.00 | 0.00 | 69 | 1010.9 |
| 20260505162540 | 60 | 281 | 3.5 | 7.8 | 0.00 | 0.00 | 0.00 | 69 | 1010.8 |
| 20260505162041 | 60 | 314 | 3.5 | 7.8 | 0.00 | 0.00 | 0.00 | 68 | 1011.0 |
| 20260505161601 | 60 | 288 | 3.5 | 7.0 | 0.00 | 0.00 | 0.00 | 68 | 1010.8 |
| 20260505161041 | 60 | 282 | 1.7 | 7.0 | 0.00 | 0.00 | 0.00 | 67 | 1010.8 |
| 20260505160541 | 60 | 286 | 2.6 | 6.1 | 0.00 | 0.00 | 0.00 | 68 | 1010.9 |
| 20260505153101 | 60 | 0 | 2.6 | 8.7 | 0.00 | 0.00 | 0.00 | 67 | 1010.8 |
| 20260505152544 | 61 | 276 | 3.5 | 8.7 | 0.00 | 0.00 | 0.00 | 67 | 1011.0 |
| 20260505152042 | 60 | 225 | 1.7 | 5.2 | 0.00 | 0.00 | 0.00 | 66 | 1010.8 |
| 20260505151546 | 61 | 0 | 0.9 | 5.2 | 0.00 | 0.00 | 0.00 | 66 | 1011.0 |
| 20260505151044 | 60 | 324 | 1.7 | 6.1 | 0.00 | 0.00 | 0.00 | 66 | 1011.0 |
| 20260505150542 | 60 | 292 | 0.9 | 6.1 | 0.00 | 0.00 | 0.00 | 67 | 1011.0 |
| 20260505140541 | 59 | 349 | 0.9 | 3.5 | 0.00 | 0.00 | 0.00 | 69 | 1011.2 |
| 20260505125040 | 60 | 360 | 1.7 | 7.8 | 0.00 | 0.00 | 0.00 | 64 | 1011.5 |
| 20260505124550 | 61 | 83 | 3.5 | 7.8 | 0.00 | 0.00 | 0.00 | 62 | 1011.5 |
| 20260505124041 | 61 | 340 | 1.7 | 8.7 | 0.00 | 0.00 | 0.00 | 65 | 1011.5 |
| 20260505123546 | 61 | 344 | 2.6 | 8.7 | 0.00 | 0.00 | 0.00 | 64 | 1011.6 |
| 20260505123053 | 61 | 339 | 1.7 | 7.0 | 0.00 | 0.00 | 0.00 | 65 | 1011.6 |
| 20260505122541 | 61 | 22 | 1.7 | 7.8 | 0.00 | 0.00 | 0.00 | 65 | 1011.6 |
| 20260505122041 | 61 | 355 | 1.7 | 7.8 | 0.00 | 0.00 | 0.00 | 65 | 1011.6 |
| 20260505121550 | 61 | 346 | 3.5 | 7.8 | 0.00 | 0.00 | 0.00 | 64 | 1011.5 |
| 20260505121045 | 61 | 32 | 1.7 | 7.0 | 0.00 | 0.00 | 0.00 | 64 | 1011.6 |
| 20260505120540 | 62 | 360 | 1.7 | 7.8 | 0.00 | 0.00 | 0.00 | 64 | 1011.5 |
| 20260505120056 | 61 | 343 | 3.5 | 7.8 | 0.00 | 0.00 | 0.00 | 64 | 1011.5 |
| 20260505115541 | 61 | 17 | 2.6 | 8.7 | 0.00 | 0.00 | 0.00 | 64 | 1011.6 |
| 20260505115040 | 61 | 57 | 2.6 | 8.7 | 0.00 | 0.00 | 0.00 | 65 | 1011.5 |
| 20260505114551 | 61 | 335 | 3.5 | 8.7 | 0.00 | 0.00 | 0.00 | 64 | 1011.5 |
| 20260505114041 | 61 | 329 | 1.7 | 7.8 | 0.00 | 0.00 | 0.00 | 66 | 1011.6 |
| 20260505113545 | 62 | 22 | 2.6 | 7.0 | 0.00 | 0.00 | 0.00 | 63 | 1011.6 |
| 20260505113051 | 64 | 355 | 2.6 | 7.8 | 0.00 | 0.00 | 0.00 | 62 | 1011.7 |
| 20260505112541 | 64 | 0 | 2.6 | 7.8 | 0.00 | 0.00 | 0.00 | 65 | 1011.7 |
| 20260505112041 | 63 | 343 | 1.7 | 5.2 | 0.00 | 0.00 | 0.00 | 67 | 1011.8 |
| 20260505111551 | 61 | 284 | 1.7 | 7.0 | 0.00 | 0.00 | 0.00 | 69 | 1011.8 |
| 20260505111041 | 61 | 318 | 2.6 | 7.0 | 0.00 | 0.00 | 0.00 | 66 | 1011.8 |
| 20260505110541 | 61 | 5 | 0.0 | 4.3 | 0.00 | 0.00 | 0.00 | 70 | 1011.9 |
| 20260505102045 | 57 | 24 | 0.0 | 7.0 | 0.00 | 0.00 | 0.00 | 76 | 1012.3 |
| 20260505101553 | 57 | 0 | 0.9 | 7.8 | 0.00 | 0.00 | 0.00 | 76 | 1012.4 |
| 20260505101041 | 58 | 0 | 0.9 | 7.8 | 0.00 | 0.00 | 0.00 | 76 | 1012.4 |
| 20260505100543 | 58 | 0 | 0.9 | 6.1 | 0.00 | 0.00 | 0.00 | 77 | 1012.3 |
| 20260505100053 | 58 | 34 | 0.0 | 3.5 | 0.00 | 0.00 | 0.00 | 79 | 1012.3 |
| 20260505095541 | 58 | 0 | 0.0 | 4.3 | 0.00 | 0.00 | 0.00 | 79 | 1012.3 |
| 20260505095041 | 56 | 0 | 0.0 | 4.3 | 0.00 | 0.00 | 0.00 | 81 | 1012.4 |
| 20260505094549 | 55 | 12 | 0.0 | 4.3 | 0.00 | 0.00 | 0.00 | 84 | 1012.5 |
| 20260505094041 | 54 | 0 | 0.0 | 3.5 | 0.00 | 0.00 | 0.00 | 84 | 1012.5 |
| 20260505093541 | 53 | 0 | 0.0 | 3.5 | 0.00 | 0.00 | 0.00 | 84 | 1012.7 |
| 20260505093050 | 53 | 0 | 0.0 | 3.5 | 0.00 | 0.00 | 0.00 | 84 | 1012.7 |
| 20260505092541 | 53 | 327 | 0.0 | 5.2 | 0.00 | 0.00 | 0.00 | 83 | 1012.7 |
| 20260505092041 | 53 | 0 | 0.0 | 7.0 | 0.00 | 0.00 | 0.00 | 83 | 1012.7 |
| 20260505091613 | 53 | 360 | 0.9 | 7.8 | 0.00 | 0.00 | 0.00 | 83 | 1012.6 |
| 20260505091042 | 53 | 0 | 1.7 | 7.8 | 0.00 | 0.00 | 0.00 | 83 | 1012.6 |
| 20260505090541 | 53 | 342 | 2.6 | 7.8 | 0.00 | 0.00 | 0.00 | 84 | 1012.7 |
| 20260505090104 | 53 | 336 | 1.7 | 7.0 | 0.00 | 0.00 | 0.00 | 84 | 1012.7 |
| 20260505085540 | 53 | 355 | 2.6 | 7.0 | 0.00 | 0.00 | 0.00 | 85 | 1012.7 |
| 20260505085041 | 53 | 355 | 1.7 | 6.1 | 0.00 | 0.00 | 0.00 | 86 | 1012.7 |
| 20260505084605 | 53 | 344 | 0.9 | 4.3 | 0.00 | 0.00 | 0.00 | 86 | 1012.7 |
| 20260505084040 | 53 | 0 | 0.0 | 3.5 | 0.00 | 0.00 | 0.00 | 87 | 1012.8 |
| 20260505083540 | 53 | 0 | 0.9 | 4.3 | 0.00 | 0.00 | 0.00 | 87 | 1012.7 |
| 20260505083103 | 53 | 0 | 0.9 | 7.0 | 0.00 | 0.00 | 0.00 | 88 | 1012.8 |
| 20260505082542 | 53 | 321 | 0.9 | 7.0 | 0.00 | 0.00 | 0.00 | 88 | 1012.8 |
| 20260505082041 | 53 | 360 | 0.0 | 2.6 | 0.00 | 0.00 | 0.00 | 89 | 1012.8 |
| 20260505081600 | 52 | 0 | 0.0 | 2.6 | 0.00 | 0.00 | 0.00 | 89 | 1012.8 |
| 20260505081043 | 52 | 0 | 0.0 | 2.6 | 0.00 | 0.00 | 0.00 | 89 | 1012.7 |
| 20260505080541 | 52 | 0 | 0.0 | 2.6 | 0.00 | 0.00 | 0.00 | 89 | 1012.8 |
| 20260505080058 | 52 | 0 | 0.0 | 1.7 | 0.00 | 0.00 | 0.00 | 90 | 1012.8 |
| 20260505075542 | 52 | 341 | 0.0 | 1.7 | 0.00 | 0.00 | 0.00 | 90 | 1012.7 |
| 20260505075041 | 52 | 0 | 0.0 | 1.7 | 0.00 | 0.00 | 0.00 | 90 | 1012.7 |
| 20260505074548 | 52 | 0 | 0.0 | 0.9 | 0.00 | 0.00 | 0.00 | 90 | 1012.7 |
| 20260505074041 | 52 | 0 | 0.0 | 0.9 | 0.00 | 0.00 | 0.00 | 90 | 1012.7 |
| 20260505073541 | 52 | 0 | 0.0 | 1.7 | 0.00 | 0.00 | 0.00 | 90 | 1012.8 |
| 20260505073054 | 52 | 0 | 0.0 | 1.7 | 0.00 | 0.00 | 0.00 | 90 | 1012.8 |
| 20260505072541 | 51 | 0 | 0.0 | 2.6 | 0.00 | 0.00 | 0.00 | 90 | 1012.8 |
| 20260505072041 | 51 | 0 | 0.0 | 2.6 | 0.00 | 0.00 | 0.00 | 90 | 1012.8 |
| 20260505071612 | 51 | 0 | 0.0 | 1.7 | 0.00 | 0.00 | 0.00 | 90 | 1012.8 |
| 20260505071044 | 51 | 0 | 0.0 | 1.7 | 0.00 | 0.00 | 0.00 | 90 | 1012.9 |
| 20260505070541 | 51 | 0 | 0.0 | 0.9 | 0.00 | 0.00 | 0.00 | 91 | 1012.9 |
| 20260505070052 | 51 | 0 | 0.0 | 4.3 | 0.00 | 0.00 | 0.00 | 91 | 1012.8 |
| 20260505065541 | 51 | 0 | 0.9 | 4.3 | 0.00 | 0.00 | 0.00 | 91 | 1012.9 |
| 20260505065040 | 51 | 297 | 0.0 | 3.5 | 0.00 | 0.00 | 0.00 | 90 | 1012.8 |
| 20260505064549 | 51 | 0 | 0.0 | 2.6 | 0.00 | 0.00 | 0.00 | 91 | 1012.9 |
| 20260505064040 | 51 | 0 | 0.0 | 3.5 | 0.00 | 0.00 | 0.00 | 91 | 1012.9 |
| 20260505063541 | 51 | 0 | 0.0 | 3.5 | 0.00 | 0.00 | 0.00 | 91 | 1013.0 |
| 20260505063052 | 51 | 0 | 0.0 | 4.3 | 0.00 | 0.00 | 0.00 | 91 | 1013.0 |
| 20260505062541 | 51 | 0 | 1.7 | 4.3 | 0.00 | 0.00 | 0.00 | 91 | 1012.9 |
| 20260505062042 | 51 | 0 | 0.9 | 3.5 | 0.00 | 0.00 | 0.00 | 91 | 1012.8 |
| 20260505061555 | 51 | 0 | 0.0 | 7.0 | 0.00 | 0.00 | 0.00 | 91 | 1012.8 |
| 20260505061041 | 50 | 0 | 0.0 | 7.0 | 0.00 | 0.00 | 0.00 | 91 | 1012.8 |
| 20260505060542 | 50 | 0 | 0.9 | 7.0 | 0.00 | 0.00 | 0.00 | 91 | 1012.9 |
| 20260505055541 | 50 | 0 | 0.9 | 4.3 | 0.00 | 0.00 | 0.00 | 91 | 1012.9 |
| 20260505055041 | 50 | 0 | 0.0 | 4.3 | 0.00 | 0.00 | 0.00 | 91 | 1012.9 |
| 20260505054554 | 50 | 0 | 0.0 | 2.6 | 0.00 | 0.00 | 0.00 | 91 | 1012.9 |
| 20260505054041 | 50 | 18 | 0.0 | 2.6 | 0.00 | 0.00 | 0.00 | 91 | 1012.9 |
| 20260505053540 | 50 | 0 | 0.0 | 2.6 | 0.00 | 0.00 | 0.00 | 91 | 1013.0 |
| 20260505053051 | 50 | 0 | 0.0 | 0.0 | 0.00 | 0.00 | 0.00 | 91 | 1013.0 |
| 20260505052540 | 50 | 0 | 0.0 | 0.0 | 0.00 | 0.00 | 0.00 | 91 | 1013.0 |
| 20260505052040 | 50 | 0 | 0.0 | 0.0 | 0.00 | 0.00 | 0.00 | 91 | 1012.9 |
| 20260505051550 | 50 | 0 | 0.0 | 1.7 | 0.00 | 0.00 | 0.00 | 91 | 1012.9 |
| 20260505051041 | 50 | 0 | 0.0 | 1.7 | 0.00 | 0.00 | 0.00 | 91 | 1012.9 |
| 20260505050541 | 50 | 0 | 0.0 | 1.7 | 0.00 | 0.00 | 0.00 | 91 | 1012.9 |
| 20260505041552 | 50 | 0 | 0.0 | 3.5 | 0.00 | 0.00 | 0.00 | 90 | 1013.1 |
| 20260505041041 | 50 | 0 | 0.0 | 3.5 | 0.00 | 0.00 | 0.00 | 90 | 1013.1 |
| 20260505040542 | 50 | 0 | 0.0 | 3.5 | 0.00 | 0.00 | 0.00 | 90 | 1013.1 |
| 20260505040053 | 50 | 26 | 0.9 | 4.3 | 0.00 | 0.00 | 0.00 | 90 | 1013.2 |
| 20260505035542 | 50 | 0 | 0.0 | 4.3 | 0.00 | 0.00 | 0.00 | 90 | 1013.0 |
| 20260505035042 | 50 | 341 | 0.9 | 5.2 | 0.00 | 0.00 | 0.00 | 90 | 1013.1 |
| 20260505034546 | 50 | 339 | 1.7 | 5.2 | 0.00 | 0.00 | 0.00 | 90 | 1013.0 |
| 20260505034041 | 50 | 25 | 0.9 | 3.5 | 0.00 | 0.00 | 0.00 | 90 | 1013.1 |
| 20260505033542 | 50 | 328 | 0.9 | 3.5 | 0.00 | 0.00 | 0.00 | 90 | 1013.1 |
| 20260505033048 | 50 | 0 | 0.9 | 5.2 | 0.00 | 0.00 | 0.00 | 90 | 1013.0 |
| 20260505032541 | 50 | 0 | 0.9 | 5.2 | 0.00 | 0.00 | 0.00 | 90 | 1013.0 |
| 20260505032040 | 50 | 349 | 0.0 | 3.5 | 0.00 | 0.00 | 0.00 | 89 | 1013.2 |
| 20260505031548 | 50 | 0 | 0.9 | 3.5 | 0.00 | 0.00 | 0.00 | 89 | 1013.2 |
| 20260505031041 | 50 | 5 | 0.9 | 2.6 | 0.00 | 0.00 | 0.00 | 89 | 1013.1 |
| 20260505030541 | 50 | 351 | 0.0 | 2.6 | 0.00 | 0.00 | 0.00 | 89 | 1013.1 |
| 20260505030109 | 50 | 0 | 0.9 | 3.5 | 0.00 | 0.00 | 0.00 | 89 | 1012.9 |
| 20260505025542 | 50 | 355 | 0.0 | 3.5 | 0.00 | 0.00 | 0.00 | 89 | 1013.0 |
| 20260505025040 | 50 | 346 | 0.0 | 3.5 | 0.00 | 0.00 | 0.00 | 89 | 1013.0 |
| 20260505024558 | 50 | 0 | 0.9 | 3.5 | 0.00 | 0.00 | 0.00 | 89 | 1013.0 |
| 20260505024041 | 50 | 0 | 0.9 | 3.5 | 0.00 | 0.00 | 0.00 | 89 | 1013.0 |
| 20260505023541 | 50 | 352 | 0.0 | 2.6 | 0.00 | 0.00 | 0.00 | 88 | 1013.1 |
| 20260505023049 | 50 | 0 | 0.0 | 0.0 | 0.00 | 0.00 | 0.00 | 88 | 1013.0 |
| 20260505022540 | 50 | 0 | 0.0 | 0.0 | 0.00 | 0.00 | 0.00 | 88 | 1012.9 |
| 20260505022041 | 51 | 0 | 0.0 | 1.7 | 0.00 | 0.00 | 0.00 | 88 | 1013.0 |
| 20260505021546 | 51 | 0 | 0.0 | 3.5 | 0.00 | 0.00 | 0.00 | 88 | 1013.0 |
| 20260505021041 | 51 | 0 | 0.0 | 4.3 | 0.00 | 0.00 | 0.00 | 88 | 1012.9 |
| 20260505020541 | 51 | 17 | 0.0 | 4.3 | 0.00 | 0.00 | 0.00 | 88 | 1012.9 |
| 20260505020050 | 51 | 327 | 0.0 | 2.6 | 0.00 | 0.00 | 0.00 | 88 | 1013.1 |
| 20260505015541 | 51 | 0 | 0.0 | 3.5 | 0.00 | 0.00 | 0.00 | 88 | 1013.2 |
| 20260505015041 | 51 | 0 | 0.0 | 4.3 | 0.00 | 0.00 | 0.00 | 88 | 1013.2 |
| 20260505014603 | 51 | 23 | 0.9 | 4.3 | 0.00 | 0.00 | 0.00 | 88 | 1013.2 |
| 20260505014041 | 51 | 0 | 0.0 | 2.6 | 0.00 | 0.00 | 0.00 | 88 | 1013.2 |
| 20260505013540 | 51 | 331 | 0.0 | 2.6 | 0.00 | 0.00 | 0.00 | 88 | 1013.4 |
| 20260505013053 | 51 | 0 | 0.0 | 2.6 | 0.00 | 0.00 | 0.00 | 88 | 1013.4 |
| 20260505012541 | 51 | 0 | 0.0 | 2.6 | 0.00 | 0.00 | 0.00 | 88 | 1013.5 |
| 20260505012042 | 51 | 0 | 0.0 | 2.6 | 0.00 | 0.00 | 0.00 | 88 | 1013.6 |
| 20260505011556 | 51 | 330 | 0.0 | 2.6 | 0.00 | 0.00 | 0.00 | 88 | 1013.6 |
| 20260505011044 | 51 | 0 | 0.0 | 0.0 | 0.00 | 0.00 | 0.00 | 87 | 1013.6 |
| 20260505010541 | 51 | 0 | 0.0 | 0.9 | 0.00 | 0.00 | 0.00 | 87 | 1013.7 |
| 20260505010058 | 51 | 0 | 0.0 | 0.9 | 0.00 | 0.00 | 0.00 | 87 | 1013.7 |
| 20260505005544 | 51 | 0 | 0.0 | 2.6 | 0.00 | 0.00 | 0.00 | 87 | 1013.7 |
| 20260505005042 | 51 | 0 | 0.0 | 2.6 | 0.00 | 0.00 | 0.00 | 87 | 1013.7 |
| 20260505004553 | 51 | 0 | 0.0 | 2.6 | 0.00 | 0.00 | 0.00 | 87 | 1013.6 |
| 20260505004041 | 51 | 0 | 0.0 | 0.9 | 0.00 | 0.00 | 0.00 | 86 | 1013.7 |
| 20260505003541 | 51 | 0 | 0.0 | 1.7 | 0.00 | 0.00 | 0.00 | 86 | 1013.6 |
| 20260505003057 | 51 | 0 | 0.0 | 2.6 | 0.00 | 0.00 | 0.00 | 86 | 1013.6 |
| 20260505002541 | 52 | 0 | 0.0 | 2.6 | 0.00 | 0.00 | 0.00 | 86 | 1013.6 |
| 20260505002041 | 52 | 23 | 0.0 | 1.7 | 0.00 | 0.00 | 0.00 | 86 | 1013.6 |
| 20260505001545 | 52 | 352 | 0.0 | 2.6 | 0.00 | 0.00 | 0.00 | 86 | 1013.7 |
| 20260505001040 | 52 | 5 | 0.9 | 3.5 | 0.00 | 0.00 | 0.00 | 85 | 1013.8 |
| 20260505000541 | 52 | 355 | 0.9 | 3.5 | 0.00 | 0.00 | 0.00 | 85 | 1013.7 |
| 20260505000057 | 52 | 355 | 0.9 | 3.5 | 0.00 | 0.00 | 0.00 | 85 | 1013.7 |
| 20260504235543 | 53 | 0 | 0.0 | 3.5 | 0.00 | 0.00 | 0.00 | 85 | 1013.7 |
| 20260504235041 | 53 | 355 | 0.9 | 3.5 | 0.00 | 0.00 | 0.00 | 85 | 1013.8 |
| 20260504234550 | 53 | 0 | 0.0 | 4.3 | 0.00 | 0.00 | 0.00 | 85 | 1013.8 |
| 20260504234040 | 53 | 0 | 0.9 | 4.3 | 0.00 | 0.00 | 0.00 | 85 | 1014.0 |
| 20260504233545 | 53 | 9 | 0.0 | 4.3 | 0.00 | 0.00 | 0.00 | 84 | 1014.0 |
| 20260504233051 | 53 | 344 | 0.0 | 4.3 | 0.00 | 0.00 | 0.00 | 84 | 1014.0 |
| 20260504232542 | 53 | 340 | 0.9 | 4.3 | 0.00 | 0.00 | 0.00 | 84 | 1014.1 |
| 20260504232042 | 54 | 355 | 0.9 | 7.0 | 0.00 | 0.00 | 0.00 | 84 | 1014.0 |
| 20260504231548 | 54 | 349 | 1.7 | 7.0 | 0.00 | 0.00 | 0.00 | 84 | 1014.0 |
| 20260504231041 | 54 | 27 | 2.6 | 6.1 | 0.00 | 0.00 | 0.00 | 84 | 1014.0 |
| 20260504230541 | 54 | 18 | 0.9 | 5.2 | 0.00 | 0.00 | 0.00 | 84 | 1014.0 |
| 20260504230050 | 54 | 15 | 1.7 | 6.1 | 0.00 | 0.00 | 0.00 | 84 | 1014.0 |
| 20260504225541 | 54 | 5 | 1.7 | 7.0 | 0.00 | 0.00 | 0.00 | 84 | 1014.1 |
| 20260504225040 | 54 | 319 | 1.7 | 7.0 | 0.00 | 0.00 | 0.00 | 84 | 1014.0 |
| 20260504224548 | 54 | 40 | 2.6 | 7.0 | 0.00 | 0.00 | 0.00 | 84 | 1014.1 |